Weather History for Lawrence, MA

Change the Weather History Date:

Tuesday, February 19, 2013

  Actual Average Record
Temperature  
Mean Temperature 35 °F -  
Max Temperature 46 °F 36 °F 65 °F (1981)
Min Temperature 24 °F 19 °F -4 °F (1979)
Degree Days  
Heating Degree Days 30    
Moisture  
Dew Point 27 °F    
Average Humidity 67    
Maximum Humidity 93    
Minimum Humidity 34    
Precipitation  
Precipitation 0.17 in - - ()
Sea Level Pressure  
Sea Level Pressure 29.84 in    
Wind  
Wind Speed 6 mph (SSW)    
Max Wind Speed 14 mph    
Max Gust Speed 47 mph    
Visibility 8 miles    
Events Fog , Rain    
Averages and records for this station are not official NWS values.
T = Trace of Precipitation, MM = Missing Value Source: NWS Daily Summary

Daily Weather History Graph

Daily Weather History Graph

Search for Another Location

Airport:

Trip Planner

Search our weather history database for the weather conditions in past years. The results will help you decide how hot, cold, wet, or windy it might be!

Date:

Astronomy

Feb. 19, 2013 Rise Set
Actual Time 6:35 AM EST 5:21 PM EST
Civil Twilight 6:06 AM EST 5:50 PM EST
Nautical Twilight 5:33 AM EST 6:23 PM EST
Astronomical Twilight 5:01 AM EST 6:56 PM EST
Moon 11:46 AM EST (2/19) 2:08 AM EST (2/19)
Length of Visible Light 11h 43m
Length of Day
10h 46m
Waxing Gibbous, 67% of the Moon is Illuminated
Feb 19
Waxing Gibbous
Feb 25
Full
Mar 4
Last Quarter
Mar 11
New
Mar 19
First Quarter

Hourly Weather History & Observations

Time (EST) Temp. Windchill Dew Point Humidity Pressure Visibility Wind Dir Wind Speed Gust Speed Precip Events Conditions
12:54 AM 24.1 °F 13.1 °F 3.0 °F 40% 30.15 in 10.0 mi WSW 11.5 mph - N/A   Clear
1:54 AM 24.1 °F 13.7 °F 3.0 °F 40% 30.17 in 10.0 mi SW 10.4 mph - N/A   Clear
2:54 AM 24.1 °F 16.0 °F 3.9 °F 42% 30.17 in 10.0 mi WSW 6.9 mph - N/A   Clear
3:54 AM 24.1 °F 19.7 °F 3.9 °F 42% 30.16 in 10.0 mi WSW 3.5 mph - N/A   Mostly Cloudy
4:54 AM 24.1 °F - 3.0 °F 40% 30.14 in 10.0 mi Calm Calm - N/A   Partly Cloudy
5:54 AM 25.0 °F 20.7 °F 5.0 °F 43% 30.13 in 10.0 mi SSW 3.5 mph - N/A   Overcast
6:54 AM 26.6 °F 22.6 °F 6.8 °F 43% 30.13 in 10.0 mi SSW 3.5 mph - N/A   Overcast
7:54 AM 28.0 °F 22.8 °F 8.1 °F 43% 30.12 in 10.0 mi WSW 4.6 mph - N/A   Overcast
8:54 AM 30.9 °F 24.3 °F 9.0 °F 40% 30.11 in 10.0 mi SW 6.9 mph - N/A   Clear
9:54 AM 36.0 °F 32.1 °F 10.0 °F 34% 30.10 in 10.0 mi South 4.6 mph - N/A   Clear
10:54 AM 39.9 °F 35.1 °F 19.0 °F 43% 30.07 in 10.0 mi Variable 6.9 mph - N/A   Clear
11:54 AM 42.8 °F 40.1 °F 21.2 °F 42% 30.03 in 10.0 mi SSW 4.6 mph - N/A   Clear
1:54 PM 46.0 °F 44.8 °F 25.0 °F 44% 29.96 in 10.0 mi Variable 3.5 mph - N/A   Clear
2:54 PM 44.1 °F 41.5 °F 28.0 °F 53% 29.91 in 10.0 mi East 4.6 mph - N/A   Clear
3:54 PM 46.0 °F 43.9 °F 28.9 °F 51% 29.87 in 10.0 mi SSE 4.6 mph - N/A   Mostly Cloudy
4:54 PM 46.0 °F 43.1 °F 33.1 °F 61% 29.84 in 10.0 mi South 5.8 mph - 0.00 in Rain Light Rain
5:54 PM 45.0 °F 41.8 °F 37.0 °F 74% 29.81 in 10.0 mi Variable 5.8 mph - 0.00 in   Overcast
7:28 PM 42.8 °F 37.0 °F 37.4 °F 81% 29.73 in 6.0 mi SE 10.4 mph - 0.03 in Rain Rain
7:54 PM 42.8 °F 35.8 °F 37.4 °F 81% 29.71 in 6.0 mi East 13.8 mph 47.2 mph N/A Rain Rain
8:01 PM 42.8 °F 39.3 °F 39.2 °F 87% 29.70 in 5.0 mi Variable 5.8 mph 47.2 mph N/A Rain Rain
8:54 PM 44.1 °F 41.5 °F 39.9 °F 85% 29.66 in 10.0 mi Variable 4.6 mph - 0.07 in Rain Light Rain
9:10 PM 42.8 °F 38.0 °F 39.2 °F 87% 29.63 in 10.0 mi ESE 8.1 mph - N/A Rain Light Rain
9:25 PM 42.8 °F 40.1 °F 39.2 °F 87% 29.61 in 7.0 mi Variable 4.6 mph - 0.01 in Rain Light Rain
9:42 PM 42.8 °F 41.1 °F 39.2 °F 87% 29.64 in 7.0 mi WSW 3.5 mph - 0.02 in Rain Light Rain
9:50 PM 42.8 °F - 39.2 °F 87% 29.64 in 5.0 mi North - - 0.03 in Rain Rain
9:54 PM 43.0 °F 38.8 °F 39.9 °F 89% 29.63 in 5.0 mi SSW 6.9 mph 35.7 mph 0.04 in Rain Rain
10:02 PM 42.8 °F 41.1 °F 39.2 °F 87% 29.63 in 6.0 mi SW 3.5 mph - 0.01 in Rain Rain
10:13 PM 42.8 °F - 41.0 °F 93% 29.62 in 6.0 mi Calm Calm - 0.02 in Rain Light Rain
10:54 PM 43.0 °F - 39.9 °F 89% 29.60 in 6.0 mi Calm Calm - 0.05 in Rain Light Rain
11:16 PM 39.2 °F - 37.4 °F 93% 29.58 in 1.5 mi Calm Calm - 0.00 in Rain Light Rain
11:21 PM 39.2 °F - 37.4 °F 93% 29.58 in 0.5 mi Calm Calm - 0.00 in Fog , Rain Light Rain
11:45 PM 41.0 °F 37.1 °F 37.4 °F 87% 29.59 in 0.5 mi SSW 5.8 mph - 0.01 in Fog Fog
11:52 PM 42.8 °F 40.1 °F 39.2 °F 87% 29.58 in 1.0 mi SSW 4.6 mph - 0.01 in   Overcast
11:54 PM 42.1 °F 39.2 °F 39.0 °F 89% 29.59 in 1.0 mi SSW 4.6 mph - 0.01 in   Overcast